Location: Aula-Vintri
(58.3875°N, 22.4322°E)
Time: 07:13:08
(UTC+00:00)

CZ-2C R/B - Pass Details

Date: 13 October 2019
Orbit: 784 x 871 km, 98.3° (Epoch: 21 November)

Event Time Altitude Azimuth Distance (km) Brightness Sun altitude
Rises 21:04:26 0° 15° (NNE) 3,477 6.5 -37.7°
Reaches altitude 10° 21:07:00 10° 8° (N) 2,533 5.7 -37.8°
Enters shadow 21:10:44 32° 333° (NNW) 1,468 4.3 -38.0°
